Time,TemperatureF,DewpointF,PressureIn,WindDirection,WindDirectionDegrees,WindSpeedMPH,WindSpeedGustMPH,Humidity,HourlyPrecipIn,Conditions,Clouds,dailyrainin,SolarRadiationWatts/m^2,SoftwareType,DateUTC
2013-04-27 00:11:00,25.0,20.0,-100.00,North,353,0.0,0.0,82,0.00,,,0.00,0.000000,,2013-04-27 08:11:00,
2013-04-27 00:21:00,25.0,20.0,-100.00,North,353,0.0,0.0,82,0.00,,,0.00,0.000000,,2013-04-27 08:21:00,
2013-04-27 00:33:00,25.0,20.0,-100.00,North,353,0.0,0.0,82,0.00,,,0.00,0.000000,,2013-04-27 08:33:00,
2013-04-27 00:41:00,25.0,20.0,-100.00,North,353,0.0,0.0,82,0.00,,,0.00,0.000000,,2013-04-27 08:41:00,
2013-04-27 00:51:00,25.0,20.0,-100.00,North,353,0.0,0.0,82,0.00,,,0.00,0.000000,,2013-04-27 08:51:00,
2013-04-27 01:11:00,23.0,19.0,-100.00,NE,38,0.0,0.0,83,0.00,,,0.00,0.000000,,2013-04-27 09:11:00,
2013-04-27 01:21:00,23.0,19.0,-100.00,NE,38,0.0,0.0,83,0.00,,,0.00,0.000000,,2013-04-27 09:21:00,
2013-04-27 02:22:00,22.0,18.0,-100.00,East,94,0.0,0.0,83,0.00,,,0.00,0.000000,,2013-04-27 10:22:00,
2013-04-27 03:11:00,20.0,17.0,-100.00,East,87,0.0,1.0,87,-99.99,,,0.00,0.000000,,2013-04-27 11:11:00,
2013-04-27 03:22:00,20.0,17.0,-100.00,East,87,0.0,1.0,87,-99.99,,,0.00,0.000000,,2013-04-27 11:22:00,
2013-04-27 04:21:00,22.0,18.0,-100.00,ESE,122,0.0,0.0,86,-99.99,,,0.00,0.000000,,2013-04-27 12:21:00,
2013-04-27 05:21:00,23.0,19.0,-100.00,NNE,24,0.0,3.0,86,-99.99,,,0.00,0.000000,,2013-04-27 13:21:00,
2013-04-27 05:32:00,23.0,19.0,-100.00,NNE,24,0.0,3.0,86,-99.99,,,0.00,0.000000,,2013-04-27 13:32:00,
2013-04-27 06:11:00,24.0,19.0,-100.00,NW,318,0.0,6.0,81,-99.99,,,0.00,0.000000,,2013-04-27 14:11:00,
2013-04-27 06:21:00,24.0,19.0,-100.00,NW,318,0.0,6.0,81,-99.99,,,0.00,0.000000,,2013-04-27 14:21:00,
2013-04-27 07:11:00,23.0,18.0,-100.00,North,356,0.0,1.0,82,-99.99,,,-99.99,7.000000,,2013-04-27 15:11:00,
2013-04-27 08:13:00,24.0,19.0,-100.00,ESE,106,0.0,1.0,81,-99.99,,,0.00,30.000000,,2013-04-27 16:13:00,
2013-04-27 08:52:00,32.0,19.0,-100.00,North,1,2.0,6.0,58,-99.99,,,0.00,61.000000,,2013-04-27 16:52:00,
2013-04-27 09:22:00,32.0,19.0,-100.00,North,1,2.0,6.0,58,-99.99,,,0.00,61.000000,,2013-04-27 17:22:00,
2013-04-27 09:31:00,32.0,19.0,-100.00,North,1,2.0,6.0,58,-99.99,,,0.00,61.000000,,2013-04-27 17:31:00,
2013-04-27 09:42:00,32.0,19.0,-100.00,North,1,2.0,6.0,58,-99.99,,,0.00,61.000000,,2013-04-27 17:42:00,
2013-04-27 10:11:00,35.0,17.0,-100.00,North,356,2.0,10.0,48,0.00,,,0.00,116.000000,,2013-04-27 18:11:00,
2013-04-27 10:22:00,35.0,17.0,-100.00,North,356,2.0,10.0,48,0.00,,,0.00,116.000000,,2013-04-27 18:22:00,
2013-04-27 10:32:00,35.0,17.0,-100.00,North,356,2.0,10.0,48,0.00,,,0.00,116.000000,,2013-04-27 18:32:00,
2013-04-27 10:41:00,35.0,17.0,-100.00,North,356,2.0,10.0,48,0.00,,,0.00,116.000000,,2013-04-27 18:41:00,
2013-04-27 10:51:00,35.0,17.0,-100.00,North,356,2.0,10.0,48,0.00,,,0.00,116.000000,,2013-04-27 18:51:00,
2013-04-27 10:52:00,37.0,17.0,-100.00,NNW,327,3.0,11.0,43,0.00,,,0.00,212.000000,,2013-04-27 18:52:00,
2013-04-27 11:11:00,37.0,17.0,-100.00,NNW,327,3.0,11.0,43,0.00,,,0.00,212.000000,,2013-04-27 19:11:00,
2013-04-27 11:21:00,37.0,17.0,-100.00,NNW,327,3.0,11.0,43,0.00,,,0.00,212.000000,,2013-04-27 19:21:00,
2013-04-27 11:32:00,37.0,17.0,-100.00,NNW,327,3.0,11.0,43,0.00,,,0.00,212.000000,,2013-04-27 19:32:00,
2013-04-27 11:42:00,37.0,17.0,-100.00,NNW,327,3.0,11.0,43,0.00,,,0.00,212.000000,,2013-04-27 19:42:00,
2013-04-27 11:52:00,43.0,19.0,-100.00,NNW,327,4.0,10.0,38,0.00,,,0.00,661.000000,,2013-04-27 19:52:00,
2013-04-27 12:11:00,43.0,19.0,-100.00,NNW,327,4.0,10.0,38,0.00,,,0.00,661.000000,,2013-04-27 20:11:00,
2013-04-27 12:21:00,43.0,19.0,-100.00,NNW,327,4.0,10.0,38,0.00,,,0.00,661.000000,,2013-04-27 20:21:00,
2013-04-27 12:32:00,43.0,19.0,-100.00,NNW,327,4.0,10.0,38,0.00,,,0.00,661.000000,,2013-04-27 20:32:00,
2013-04-27 12:41:00,43.0,19.0,-100.00,NNW,327,4.0,10.0,38,0.00,,,0.00,661.000000,,2013-04-27 20:41:00,
2013-04-27 12:52:00,44.0,19.0,-100.00,NNW,340,4.0,12.0,36,0.00,,,0.00,767.000000,,2013-04-27 20:52:00,
2013-04-27 13:11:00,44.0,19.0,-100.00,NNW,340,4.0,12.0,36,0.00,,,0.00,767.000000,,2013-04-27 21:11:00,
2013-04-27 13:21:00,44.0,19.0,-100.00,NNW,340,4.0,12.0,36,0.00,,,0.00,767.000000,,2013-04-27 21:21:00,
2013-04-27 13:32:00,44.0,19.0,-100.00,NNW,340,4.0,12.0,36,0.00,,,0.00,767.000000,,2013-04-27 21:32:00,
2013-04-27 13:42:00,44.0,19.0,-100.00,NNW,340,4.0,12.0,36,0.00,,,0.00,767.000000,,2013-04-27 21:42:00,
2013-04-27 13:52:00,45.0,17.0,-100.00,NW,325,4.0,14.0,32,0.00,,,0.00,823.000000,,2013-04-27 21:52:00,
2013-04-27 14:12:00,45.0,17.0,-100.00,NW,325,4.0,14.0,32,0.00,,,0.00,823.000000,,2013-04-27 22:12:00,
2013-04-27 14:22:00,45.0,17.0,-100.00,NW,325,4.0,14.0,32,0.00,,,0.00,823.000000,,2013-04-27 22:22:00,
2013-04-27 14:32:00,45.0,17.0,-100.00,NW,325,4.0,14.0,32,0.00,,,0.00,823.000000,,2013-04-27 22:32:00,
2013-04-27 14:42:00,45.0,17.0,-100.00,NW,325,4.0,14.0,32,0.00,,,0.00,823.000000,,2013-04-27 22:42:00,
2013-04-27 14:52:00,45.0,17.0,-100.00,NW,324,4.0,11.0,32,0.00,,,0.00,815.000000,,2013-04-27 22:52:00,
2013-04-27 15:22:00,45.0,17.0,-100.00,NW,324,4.0,11.0,32,0.00,,,0.00,815.000000,,2013-04-27 23:22:00,
2013-04-27 15:32:00,45.0,17.0,-100.00,NW,324,4.0,11.0,32,0.00,,,0.00,815.000000,,2013-04-27 23:32:00,
2013-04-27 15:42:00,45.0,17.0,-100.00,NW,324,4.0,11.0,32,0.00,,,0.00,815.000000,,2013-04-27 23:42:00,
2013-04-27 16:11:00,47.0,19.0,-100.00,NW,315,3.0,10.0,33,0.00,,,0.00,809.000000,,2013-04-28 00:11:00,
2013-04-27 16:21:00,47.0,19.0,-100.00,NW,315,3.0,10.0,33,0.00,,,0.00,809.000000,,2013-04-28 00:21:00,
2013-04-27 16:42:00,47.0,19.0,-100.00,NW,315,3.0,10.0,33,0.00,,,0.00,809.000000,,2013-04-28 00:42:00,
2013-04-27 16:51:00,47.0,19.0,-100.00,NW,315,3.0,10.0,33,0.00,,,0.00,809.000000,,2013-04-28 00:51:00,
2013-04-27 16:52:00,44.0,20.0,-100.00,WNW,302,3.0,9.0,38,0.00,,,0.00,623.000000,,2013-04-28 00:52:00,
2013-04-27 17:11:00,44.0,20.0,-100.00,WNW,302,3.0,9.0,38,0.00,,,0.00,623.000000,,2013-04-28 01:11:00,
2013-04-27 17:21:00,44.0,20.0,-100.00,WNW,302,3.0,9.0,38,0.00,,,0.00,623.000000,,2013-04-28 01:21:00,
2013-04-27 17:31:00,44.0,20.0,-100.00,WNW,302,3.0,9.0,38,0.00,,,0.00,623.000000,,2013-04-28 01:31:00,
2013-04-27 17:41:00,44.0,20.0,-100.00,WNW,302,3.0,9.0,38,0.00,,,0.00,623.000000,,2013-04-28 01:41:00,
2013-04-27 17:52:00,41.0,22.0,-100.00,WNW,298,3.0,11.0,47,0.00,,,0.00,115.000000,,2013-04-28 01:52:00,
2013-04-27 18:12:00,41.0,22.0,-100.00,WNW,298,3.0,11.0,47,0.00,,,0.00,115.000000,,2013-04-28 02:12:00,
2013-04-27 18:21:00,41.0,22.0,-100.00,WNW,298,3.0,11.0,47,0.00,,,0.00,115.000000,,2013-04-28 02:21:00,
2013-04-27 18:32:00,41.0,22.0,-100.00,WNW,298,3.0,11.0,47,0.00,,,0.00,115.000000,,2013-04-28 02:32:00,
2013-04-27 18:41:00,41.0,22.0,-100.00,WNW,298,3.0,11.0,47,0.00,,,0.00,115.000000,,2013-04-28 02:41:00,
2013-04-27 18:52:00,40.0,22.0,-100.00,NW,314,3.0,11.0,49,0.00,,,0.00,122.000000,,2013-04-28 02:52:00,
2013-04-27 19:21:00,40.0,22.0,-100.00,NW,314,3.0,11.0,49,0.00,,,0.00,122.000000,,2013-04-28 03:21:00,
2013-04-27 19:32:00,40.0,22.0,-100.00,NW,314,3.0,11.0,49,0.00,,,0.00,122.000000,,2013-04-28 03:32:00,
2013-04-27 19:42:00,40.0,22.0,-100.00,NW,314,3.0,11.0,49,0.00,,,0.00,122.000000,,2013-04-28 03:42:00,
2013-04-27 19:52:00,39.0,23.0,-100.00,NW,321,3.0,9.0,53,0.00,,,0.00,99.000000,,2013-04-28 03:52:00,
2013-04-27 20:13:00,39.0,23.0,-100.00,NW,321,3.0,9.0,53,0.00,,,0.00,99.000000,,2013-04-28 04:13:00,
2013-04-27 20:22:00,39.0,23.0,-100.00,NW,321,3.0,9.0,53,0.00,,,0.00,99.000000,,2013-04-28 04:22:00,
2013-04-27 20:32:00,39.0,23.0,-100.00,NW,321,3.0,9.0,53,0.00,,,0.00,99.000000,,2013-04-28 04:32:00,
2013-04-27 20:42:00,39.0,23.0,-100.00,NW,321,3.0,9.0,53,0.00,,,0.00,99.000000,,2013-04-28 04:42:00,
2013-04-27 21:12:00,36.0,21.0,-100.00,NW,321,2.0,7.0,55,0.00,,,-99.99,44.000000,,2013-04-28 05:12:00,
2013-04-27 21:22:00,36.0,21.0,-100.00,NW,321,2.0,7.0,55,0.00,,,-99.99,44.000000,,2013-04-28 05:22:00,
2013-04-27 21:32:00,36.0,21.0,-100.00,NW,321,2.0,7.0,55,0.00,,,-99.99,44.000000,,2013-04-28 05:32:00,
2013-04-27 21:42:00,36.0,21.0,-100.00,NW,321,2.0,7.0,55,0.00,,,-99.99,44.000000,,2013-04-28 05:42:00,
2013-04-27 21:51:00,36.0,21.0,-100.00,NW,321,2.0,7.0,55,0.00,,,-99.99,44.000000,,2013-04-28 05:51:00,
2013-04-27 22:21:00,32.0,22.0,-100.00,NNW,347,1.0,5.0,67,0.00,,,0.00,11.000000,,2013-04-28 06:21:00,
2013-04-27 22:32:00,32.0,22.0,-100.00,NNW,347,1.0,5.0,67,0.00,,,0.00,11.000000,,2013-04-28 06:32:00,
2013-04-27 22:42:00,32.0,22.0,-100.00,NNW,347,1.0,5.0,67,0.00,,,0.00,11.000000,,2013-04-28 06:42:00,
2013-04-27 22:51:00,32.0,22.0,-100.00,NNW,347,1.0,5.0,67,0.00,,,0.00,11.000000,,2013-04-28 06:51:00,
2013-04-27 23:21:00,27.0,22.0,-100.00,NNW,338,0.0,3.0,80,0.00,,,0.00,1.000000,,2013-04-28 07:21:00,